Junction, TX

2:48 PM CDT on March 27, 2017 (GMT -0500)
Kimble County

Weather History for KJCT - October, 2013

Change the Weather History Date:

Sunday, October 27, 2013

  Actual Average Record
Temperature  
Mean Temperature 66 °F -  
Max Temperature 75 °F 73 °F 91 °F (2010)
Min Temperature 57 °F 50 °F 27 °F (1997)
Cooling Degree Days 1    
Growing Degree Days 16 (Base 50)    
Moisture  
Dew Point 59 °F    
Average Humidity 79    
Maximum Humidity 96    
Minimum Humidity 55    
Precipitation  
Precipitation 0.12 in - - ()
Sea Level Pressure  
Sea Level Pressure 30.02 in    
Wind  
Wind Speed 3 mph (East)    
Max Wind Speed 12 mph    
Max Gust Speed -    
Visibility 8 miles    
Events Rain    
Averages and records for this station are not official NWS values.
T = Trace of Precipitation, MM = Missing Value Source: NWS Daily Summary

Daily Weather History Graph

Daily Weather History Graph

Search for Another Location

Airport or City:

Trip Planner

Search our weather history database for the weather conditions in past years. The results will help you decide how hot, cold, wet, or windy it might be!

Date:

Astronomy

Oct. 27, 2013 Rise Set
Actual Time 7:49 AM CDT 6:55 PM CDT
Civil Twilight 7:25 AM CDT 7:19 PM CDT
Nautical Twilight 6:57 AM CDT 7:48 PM CDT
Astronomical Twilight 6:29 AM CDT 8:16 PM CDT
Moon 1:16 AM CDT 2:40 PM CDT
Length of Visible Light 11h 54m
Length of Day
11h 05m
Last Quarter, 43% of the Moon is Illuminated
Oct 27
Last Quarter
Nov 3
New
Nov 9
First Quarter
Nov 17
Full
Nov 25
Last Quarter

Hourly Weather History & Observations

Time (CDT) Temp. Dew Point Humidity Pressure Visibility Wind Dir Wind Speed Gust Speed Precip Events Conditions
12:51 AM 64.0 °F 61.0 °F 90% 30.03 in 9.0 mi Calm Calm - N/A   Overcast
1:51 AM 64.0 °F 61.0 °F 90% 30.02 in 9.0 mi South 3.5 mph - N/A   Mostly Cloudy
2:51 AM 63.0 °F 61.0 °F 93% 30.00 in 9.0 mi Calm Calm - N/A   Partly Cloudy
3:34 AM 66.2 °F 62.6 °F 88% 30.10 in 9.0 mi WNW 4.6 mph - N/A   Mostly Cloudy
3:51 AM 64.0 °F 63.0 °F 96% 30.01 in 1.8 mi Calm Calm - 0.04 in Rain Heavy Rain
4:00 AM 64.4 °F 62.6 °F 94% 30.10 in 4.0 mi NW 5.8 mph - 0.06 in Rain Light Rain
4:51 AM 62.1 °F 57.0 °F 84% 30.02 in 9.0 mi Calm Calm - 0.06 in   Overcast
5:51 AM 62.1 °F 55.0 °F 78% 30.04 in 9.0 mi Calm Calm - N/A   Overcast
6:06 AM 60.8 °F 53.6 °F 77% 30.12 in 9.0 mi Calm Calm - N/A   Overcast
6:51 AM 60.1 °F 55.0 °F 83% 30.04 in 9.0 mi Calm Calm - N/A   Overcast
7:51 AM 57.9 °F 55.9 °F 93% 30.04 in 8.0 mi Calm Calm - N/A   Partly Cloudy
8:51 AM 60.1 °F 55.9 °F 86% 30.06 in 7.0 mi Calm Calm - N/A   Clear
9:51 AM 64.0 °F 55.9 °F 75% 30.07 in 8.0 mi NNE 3.5 mph - N/A   Unknown
10:51 AM 66.0 °F 57.0 °F 73% 30.08 in 9.0 mi ESE 4.6 mph - N/A   Clear
11:51 AM 69.1 °F 59.0 °F 70% 30.07 in 9.0 mi SSE 4.6 mph - N/A   Clear
12:51 PM 72.0 °F 59.0 °F 64% 30.04 in 9.0 mi ESE 4.6 mph - N/A   Clear
1:51 PM 73.0 °F 59.0 °F 61% 30.00 in 9.0 mi ESE 9.2 mph - N/A   Clear
2:51 PM 73.9 °F 60.1 °F 62% 29.97 in 9.0 mi ENE 10.4 mph - N/A   Mostly Cloudy
3:51 PM 73.9 °F 59.0 °F 59% 29.95 in 9.0 mi East 4.6 mph - N/A   Clear
4:51 PM 73.9 °F 59.0 °F 59% 29.94 in 9.0 mi East 8.1 mph - N/A   Clear
5:51 PM 72.0 °F 60.1 °F 66% 29.93 in 9.0 mi ENE 11.5 mph - N/A   Clear
6:51 PM 69.1 °F 60.1 °F 73% 29.94 in 8.0 mi East 8.1 mph - N/A   Clear
7:51 PM 66.0 °F 60.1 °F 81% 29.96 in 9.0 mi East 6.9 mph - N/A   Clear
8:51 PM 64.0 °F 59.0 °F 84% 29.97 in 9.0 mi ENE 6.9 mph - N/A   Partly Cloudy
9:51 PM 63.0 °F 59.0 °F 87% 29.97 in 9.0 mi East 4.6 mph - N/A   Partly Cloudy
10:51 PM 61.0 °F 59.0 °F 93% 29.97 in 8.0 mi Calm Calm - N/A   Partly Cloudy
11:07 PM 60.8 °F 59.0 °F 94% 30.04 in 8.0 mi East 3.5 mph - N/A   Mostly Cloudy
11:17 PM 62.6 °F 59.0 °F 88% 30.04 in 8.0 mi Calm Calm - N/A   Mostly Cloudy
11:51 PM 61.0 °F 59.0 °F 93% 29.96 in 7.0 mi Calm Calm - N/A   Overcast